Time,TemperatureF,DewpointF,PressureIn,WindDirection,WindDirectionDegrees,WindSpeedMPH,WindSpeedGustMPH,Humidity,HourlyPrecipIn,Conditions,Clouds,dailyrainin,SoftwareType,DateUTC
2013-02-10 00:00:00,42.0,-99.9,30.37,North,350,2.0,2.0,-999,-99.99,,,-99.99,,2013-02-10 08:00:00,
2013-02-10 00:52:00,42.0,-99.9,30.37,North,350,2.0,2.0,-999,-99.99,,,-99.99,,2013-02-10 08:52:00,
2013-02-10 01:00:00,42.0,-99.9,30.37,NW,320,2.0,4.0,-999,-99.99,,,-99.99,,2013-02-10 09:00:00,
2013-02-10 01:52:00,42.0,-99.9,30.37,NW,320,2.0,4.0,-999,-99.99,,,-99.99,,2013-02-10 09:52:00,
2013-02-10 02:00:00,42.0,-99.9,30.38,NNW,340,2.0,4.0,-999,-99.99,,,-99.99,,2013-02-10 10:00:00,
2013-02-10 02:52:00,42.0,-99.9,30.38,NNW,340,2.0,4.0,-999,-99.99,,,-99.99,,2013-02-10 10:52:00,
2013-02-10 03:00:00,42.0,-99.9,30.37,North,360,7.0,9.0,-999,-99.99,,,-99.99,,2013-02-10 11:00:00,
2013-02-10 03:52:00,42.0,-99.9,30.37,North,360,7.0,9.0,-999,-99.99,,,-99.99,,2013-02-10 11:52:00,
2013-02-10 04:00:00,42.0,-99.9,30.37,NW,320,7.0,7.0,-999,-99.99,,,-99.99,,2013-02-10 12:00:00,
2013-02-10 04:52:00,42.0,-99.9,30.37,NW,320,7.0,7.0,-999,-99.99,,,-99.99,,2013-02-10 12:52:00,
2013-02-10 05:00:00,42.0,-99.9,30.37,NW,310,4.0,7.0,-999,-99.99,,,-99.99,,2013-02-10 13:00:00,
2013-02-10 05:52:00,42.0,-99.9,30.37,NW,310,4.0,7.0,-999,-99.99,,,-99.99,,2013-02-10 13:52:00,
2013-02-10 06:00:00,42.0,-99.9,30.36,WNW,300,2.0,4.0,-999,-99.99,,,-99.99,,2013-02-10 14:00:00,
2013-02-10 06:52:00,42.0,-99.9,30.36,WNW,300,2.0,4.0,-999,-99.99,,,-99.99,,2013-02-10 14:52:00,
2013-02-10 07:00:00,42.0,-99.9,30.37,WNW,300,0.0,2.0,-999,-99.99,,,-99.99,,2013-02-10 15:00:00,
2013-02-10 07:52:00,42.0,-99.9,30.37,WNW,300,0.0,2.0,-999,-99.99,,,-99.99,,2013-02-10 15:52:00,
2013-02-10 08:00:00,42.0,-99.9,30.37,NNE,20,2.0,2.0,-999,-99.99,,,-99.99,,2013-02-10 16:00:00,
2013-02-10 08:52:00,42.0,-99.9,30.37,NNE,20,2.0,2.0,-999,-99.99,,,-99.99,,2013-02-10 16:52:00,
2013-02-10 09:00:00,42.0,-99.9,30.38,ESE,120,4.0,7.0,-999,-99.99,,,-99.99,,2013-02-10 17:00:00,
2013-02-10 09:53:00,42.0,-99.9,30.38,ESE,120,4.0,7.0,-999,-99.99,,,-99.99,,2013-02-10 17:53:00,
2013-02-10 10:00:00,41.0,-99.9,30.39,SE,140,7.0,7.0,-999,-99.99,,,-99.99,,2013-02-10 18:00:00,
2013-02-10 10:52:00,41.0,-99.9,30.39,SE,140,7.0,7.0,-999,-99.99,,,-99.99,,2013-02-10 18:52:00,
2013-02-10 11:00:00,41.0,-99.9,30.38,SE,140,9.0,9.0,-999,-99.99,,,-99.99,,2013-02-10 19:00:00,
2013-02-10 11:52:00,41.0,-99.9,30.38,SE,140,9.0,9.0,-999,-99.99,,,-99.99,,2013-02-10 19:52:00,
2013-02-10 12:00:00,41.0,-99.9,30.37,SE,130,4.0,7.0,-999,-99.99,,,-99.99,,2013-02-10 20:00:00,
2013-02-10 12:53:00,41.0,-99.9,30.37,SE,130,4.0,7.0,-999,-99.99,,,-99.99,,2013-02-10 20:53:00,
2013-02-10 13:00:00,41.0,-99.9,30.36,SSE,160,4.0,4.0,-999,-99.99,,,-99.99,,2013-02-10 21:00:00,
2013-02-10 13:52:00,41.0,-99.9,30.36,SSE,160,4.0,4.0,-999,-99.99,,,-99.99,,2013-02-10 21:52:00,
2013-02-10 14:00:00,41.0,-99.9,30.35,WSW,240,2.0,4.0,-999,-99.99,,,-99.99,,2013-02-10 22:00:00,
2013-02-10 14:53:00,41.0,-99.9,30.35,WSW,240,2.0,4.0,-999,-99.99,,,-99.99,,2013-02-10 22:53:00,
2013-02-10 15:00:00,42.0,-99.9,30.34,West,270,4.0,4.0,-999,-99.99,,,-99.99,,2013-02-10 23:00:00,
2013-02-10 15:52:00,42.0,-99.9,30.34,West,270,4.0,4.0,-999,-99.99,,,-99.99,,2013-02-10 23:52:00,
2013-02-10 16:00:00,42.0,-99.9,30.34,West,280,4.0,4.0,-999,-99.99,,,-99.99,,2013-02-11 00:00:00,
2013-02-10 16:52:00,42.0,-99.9,30.34,West,280,4.0,4.0,-999,-99.99,,,-99.99,,2013-02-11 00:52:00,
2013-02-10 17:00:00,42.0,-99.9,30.33,WNW,300,4.0,7.0,-999,-99.99,,,-99.99,,2013-02-11 01:00:00,
2013-02-10 17:52:00,42.0,-99.9,30.33,WNW,300,4.0,7.0,-999,-99.99,,,-99.99,,2013-02-11 01:52:00,
2013-02-10 18:00:00,43.0,-99.9,30.33,West,280,7.0,9.0,-999,-99.99,,,-99.99,,2013-02-11 02:00:00,
2013-02-10 18:52:00,43.0,-99.9,30.33,West,280,7.0,9.0,-999,-99.99,,,-99.99,,2013-02-11 02:52:00,
2013-02-10 19:00:00,43.0,-99.9,30.34,West,280,4.0,7.0,-999,-99.99,,,-99.99,,2013-02-11 03:00:00,
2013-02-10 19:52:00,43.0,-99.9,30.34,West,280,4.0,7.0,-999,-99.99,,,-99.99,,2013-02-11 03:52:00,
2013-02-10 20:00:00,43.0,-99.9,30.34,West,280,7.0,9.0,-999,-99.99,,,-99.99,,2013-02-11 04:00:00,
2013-02-10 20:52:00,43.0,-99.9,30.34,West,280,7.0,9.0,-999,-99.99,,,-99.99,,2013-02-11 04:52:00,
2013-02-10 21:00:00,43.0,-99.9,30.35,WNW,290,11.0,13.0,-999,-99.99,,,-99.99,,2013-02-11 05:00:00,
2013-02-10 21:53:00,43.0,-99.9,30.35,WNW,290,11.0,13.0,-999,-99.99,,,-99.99,,2013-02-11 05:53:00,
2013-02-10 22:00:00,43.0,-99.9,30.33,WNW,290,4.0,4.0,-999,-99.99,,,-99.99,,2013-02-11 06:00:00,
2013-02-10 22:52:00,43.0,-99.9,30.33,WNW,290,4.0,4.0,-999,-99.99,,,-99.99,,2013-02-11 06:52:00,
2013-02-10 23:00:00,42.0,-99.9,30.33,WNW,290,4.0,4.0,-999,-99.99,,,-99.99,,2013-02-11 07:00:00,
2013-02-10 23:52:00,42.0,-99.9,30.33,WNW,290,4.0,4.0,-999,-99.99,,,-99.99,,2013-02-11 07:52:00,